Tallahassee, FL

7:56 AM EST on February 10, 2016 (GMT -0500)
Tallahassee Regional

Weather History for KTLH - August, 2014

Change the Weather History Date:

Saturday, August 9, 2014

  Actual Average Record
Temperature  
Mean Temperature 87 °F 82 °F  
Max Temperature 97 °F 92 °F 99 °F (2007)
Min Temperature 76 °F 72 °F 60 °F (2002)
Degree Days  
Heating Degree Days 0    
Month to date heating degree days 0  
Since 1 June heating degree days 0  
Since 1 July heating degree days 0  
Cooling Degree Days 22    
Month to date cooling degree days 182  
Year to date cooling degree days 1737  
Since 1 June cooling degree days 1248  
Growing Degree Days 36 (Base 50)    
Moisture  
Dew Point 72 °F    
Average Humidity 64    
Maximum Humidity 88    
Minimum Humidity 40    
Precipitation  
Precipitation T in 0.26 in 3.09 in (2007)
Month to date precipitation 0.05 2.36  
Year to date precipitation 38.87 38.92  
Sea Level Pressure  
Sea Level Pressure 30.01 in    
Wind  
Wind Speed 3 mph (SSW)    
Max Wind Speed 23 mph    
Max Gust Speed 30 mph    
Visibility 10 miles    
Events Rain , Thunderstorm    
T = Trace of Precipitation, MM = Missing Value Source: NWS Daily Summary

Daily Weather History Graph

Daily Weather History Graph

Search for Another Location

Airport or City:

Trip Planner

Search our weather history database for the weather conditions in past years. The results will help you decide how hot, cold, wet, or windy it might be!

Date:

Astronomy

Aug. 09, 2014 Rise Set
Actual Time 7:00 AM EDT 8:24 PM EDT
Civil Twilight 6:35 AM EDT 8:50 PM EDT
Nautical Twilight 6:04 AM EDT 9:20 PM EDT
Astronomical Twilight 5:32 AM EDT 9:52 PM EDT
Moon 7:27 PM EDT (8/9) 5:40 AM EDT (8/9)
Length of Visible Light 14h 15m
Length of Day
13h 24m
Waxing Gibbous, 98% of the Moon is Illuminated
Aug 9
Waxing Gibbous
Aug 10
Full
Aug 17
Last Quarter
Aug 25
New
Sep 2
First Quarter

Hourly Weather History & Observations

Time (EDT) Temp. Heat Index Dew Point Humidity Pressure Visibility Wind Dir Wind Speed Gust Speed Precip Events Conditions
1:53 AM 78.1 °F - 73.9 °F 87% 30.01 in 10.0 mi Calm Calm - N/A   Partly Cloudy
2:53 AM 78.1 °F - 73.9 °F 87% 29.99 in 10.0 mi Calm Calm - N/A   Clear
3:53 AM 78.1 °F - 73.0 °F 84% 29.99 in 10.0 mi Calm Calm - N/A   Clear
4:53 AM 77.0 °F - 73.0 °F 88% 30.00 in 10.0 mi WNW 3.5 mph - N/A   Clear
5:53 AM 77.0 °F - 73.0 °F 88% 30.01 in 10.0 mi Calm Calm - N/A   Clear
6:53 AM 77.0 °F - 73.0 °F 88% 30.03 in 10.0 mi Calm Calm - N/A   Scattered Clouds
7:53 AM 77.0 °F - 73.0 °F 88% 30.05 in 8.0 mi Calm Calm - N/A   Mostly Cloudy
8:53 AM 82.0 °F 87.9 °F 73.9 °F 76% 30.05 in 10.0 mi Calm Calm - N/A   Scattered Clouds
9:53 AM 86.0 °F 93.8 °F 73.9 °F 67% 30.05 in 10.0 mi Calm Calm - N/A   Scattered Clouds
10:53 AM 89.1 °F 95.0 °F 71.1 °F 55% 30.05 in 10.0 mi Calm Calm - N/A   Mostly Cloudy
11:53 AM 91.9 °F 97.4 °F 70.0 °F 48% 30.05 in 10.0 mi SW 5.8 mph - N/A   Mostly Cloudy
1:53 PM 93.9 °F 99.1 °F 69.1 °F 44% 30.02 in 10.0 mi South 6.9 mph - N/A   Mostly Cloudy
2:53 PM 96.1 °F 101.0 °F 68.0 °F 40% 30.00 in 10.0 mi WSW 8.1 mph - N/A   Mostly Cloudy
3:43 PM 82.4 °F 88.2 °F 73.4 °F 74% 30.00 in 8.0 mi South 11.5 mph - 0.00 in Rain Light Rain
3:45 PM 82.4 °F 88.2 °F 73.4 °F 74% 29.99 in 9.0 mi South 9.2 mph - 0.00 in Rain , Thunderstorm Light Thunderstorms and Rain
3:53 PM 86.0 °F 93.0 °F 73.0 °F 65% 29.99 in 10.0 mi South 8.1 mph - 0.00 in Thunderstorm Thunderstorm
4:53 PM 87.1 °F 91.3 °F 69.1 °F 55% 29.99 in 10.0 mi West 9.2 mph - N/A Thunderstorm Thunderstorm
5:38 PM 82.4 °F 86.3 °F 69.8 °F 66% 29.98 in 10.0 mi WSW 11.5 mph - 0.00 in   Mostly Cloudy
5:53 PM 82.0 °F 85.9 °F 70.0 °F 67% 29.98 in 10.0 mi WSW 6.9 mph - 0.00 in   Mostly Cloudy
6:53 PM 82.0 °F 85.9 °F 70.0 °F 67% 29.97 in 10.0 mi SSW 4.6 mph - N/A   Mostly Cloudy
7:53 PM 82.0 °F 85.9 °F 70.0 °F 67% 30.01 in 10.0 mi Calm Calm - N/A   Mostly Cloudy
8:53 PM 80.1 °F 83.8 °F 72.0 °F 76% 30.02 in 10.0 mi SSE 3.5 mph - N/A   Scattered Clouds
9:53 PM 79.0 °F - 72.0 °F 79% 30.03 in 10.0 mi Calm Calm - N/A   Scattered Clouds
10:53 PM 78.8 °F - 71.6 °F 78% 30.04 in 10.0 mi Calm Calm - N/A   Scattered Clouds
11:53 PM 77.0 °F - 73.0 °F 88% 30.03 in 10.0 mi Calm Calm - N/A   Clear